FDX1825 KSFO-KLAX

Flight info

Callsign FDX1825
Flight time 0h 57m
Altitude 32000
Route WESLA5 SUSEY DCT EBAYE DCT BURGL IRNMN2
Aircraft MD11/H-SDE1E2E3FGHIJ2J3J4J5M1RWXY/LB1D1

Departure

Time 2026-05-04 03:46
Airport San Francisco International Airport (KSFO)

Arrival

Time 2026-05-04 04:44
Airport Los Angeles International Airport (KLAX)
Time Latitude Longitude Altitude Speed Heading
2026-05-04 02:51 37.62786 -122.38276 24 ft 0 kts 298°
2026-05-04 03:25 37.62783 -122.38268 23 ft 4 kts 297°
2026-05-04 03:25 37.62771 -122.38238 24 ft 4 kts 282°
2026-05-04 03:25 37.62769 -122.38215 26 ft 4 kts 234°
2026-05-04 03:26 37.62771 -122.38210 26 ft 3 kts 212°
2026-05-04 03:26 37.62748 -122.38227 27 ft 4 kts 208°
2026-05-04 03:26 37.62749 -122.38226 27 ft 4 kts 207°
2026-05-04 03:26 37.62763 -122.38217 24 ft 4 kts 208°
2026-05-04 03:39 37.62751 -122.38225 27 ft 5 kts 207°
2026-05-04 03:39 37.62714 -122.38249 23 ft 7 kts 207°
2026-05-04 03:39 37.62660 -122.38284 25 ft 11 kts 207°
2026-05-04 03:39 37.62595 -122.38283 24 ft 8 kts 147°
2026-05-04 03:40 37.62563 -122.38222 27 ft 10 kts 119°
2026-05-04 03:40 37.62523 -122.38129 30 ft 14 kts 118°
2026-05-04 03:40 37.62470 -122.38005 25 ft 16 kts 118°
2026-05-04 03:40 37.62419 -122.37883 28 ft 15 kts 118°
2026-05-04 03:41 37.62367 -122.37760 29 ft 16 kts 118°
2026-05-04 03:41 37.62309 -122.37622 30 ft 22 kts 117°
2026-05-04 03:41 37.62231 -122.37435 27 ft 25 kts 118°
2026-05-04 03:41 37.62154 -122.37251 23 ft 18 kts 118°
2026-05-04 03:42 37.62095 -122.37112 22 ft 21 kts 118°
2026-05-04 03:42 37.62021 -122.36935 27 ft 22 kts 117°
2026-05-04 03:42 37.61958 -122.36783 26 ft 20 kts 118°
2026-05-04 03:42 37.61883 -122.36606 28 ft 23 kts 118°
2026-05-04 03:43 37.61808 -122.36429 25 ft 26 kts 118°
2026-05-04 03:43 37.61722 -122.36222 28 ft 25 kts 118°
2026-05-04 03:43 37.61643 -122.36034 24 ft 24 kts 118°
2026-05-04 03:43 37.61577 -122.35875 26 ft 20 kts 117°
2026-05-04 03:44 37.61538 -122.35781 28 ft 8 kts 117°
2026-05-04 03:44 37.61505 -122.35712 28 ft 6 kts 130°
2026-05-04 03:44 37.61496 -122.35701 29 ft 3 kts 135°
2026-05-04 03:44 37.61468 -122.35684 29 ft 6 kts 167°
2026-05-04 03:45 37.61414 -122.35695 29 ft 10 kts 198°
2026-05-04 03:45 37.61374 -122.35728 28 ft 1 kts 242°
2026-05-04 03:45 37.61379 -122.35786 30 ft 9 kts 292°
2026-05-04 03:45 37.61442 -122.35928 27 ft 48 kts 298°
2026-05-04 03:46 37.61756 -122.36672 27 ft 140 kts 297°
2026-05-04 03:46 37.62300 -122.37952 394 ft 173 kts 296°
2026-05-04 03:46 37.62913 -122.39281 1314 ft 182 kts 298°
2026-05-04 03:46 37.63583 -122.40682 2292 ft 192 kts 298°
2026-05-04 03:47 37.64225 -122.42100 3713 ft 165 kts 293°
2026-05-04 03:47 37.64708 -122.43518 4693 ft 198 kts 289°
2026-05-04 03:47 37.65254 -122.45236 5401 ft 217 kts 293°
2026-05-04 03:47 37.65933 -122.46976 6456 ft 208 kts 297°
2026-05-04 03:48 37.66679 -122.48616 7344 ft 228 kts 293°
2026-05-04 03:48 37.66998 -122.50595 8018 ft 234 kts 258°
2026-05-04 03:48 37.66425 -122.52359 9285 ft 211 kts 233°
2026-05-04 03:48 37.65470 -122.53870 9808 ft 227 kts 220°
2026-05-04 03:49 37.64105 -122.54929 9981 ft 239 kts 195°
2026-05-04 03:49 37.62503 -122.55359 10732 ft 234 kts 185°
2026-05-04 03:49 37.60949 -122.55397 11885 ft 212 kts 166°
2026-05-04 03:49 37.59503 -122.54895 12605 ft 225 kts 160°
2026-05-04 03:50 37.57977 -122.54242 13156 ft 234 kts 159°
2026-05-04 03:50 37.56599 -122.53464 14368 ft 205 kts 146°
2026-05-04 03:50 37.55484 -122.52598 15273 ft 179 kts 147°
2026-05-04 03:50 37.54372 -122.51815 15553 ft 188 kts 149°
2026-05-04 03:51 37.53202 -122.50973 15714 ft 198 kts 148°
2026-05-04 03:51 37.51976 -122.50102 15850 ft 207 kts 150°
2026-05-04 03:51 37.50656 -122.49305 15986 ft 214 kts 155°
2026-05-04 03:51 37.49262 -122.48594 16122 ft 218 kts 155°
2026-05-04 03:52 37.48046 -122.47490 16238 ft 217 kts 131°
2026-05-04 03:52 37.47054 -122.46012 16344 ft 230 kts 128°
2026-05-04 03:52 37.45996 -122.44397 16523 ft 250 kts 129°
2026-05-04 03:52 37.44819 -122.42647 16660 ft 273 kts 130°
2026-05-04 03:53 37.43517 -122.40759 16809 ft 298 kts 130°
2026-05-04 03:53 37.42131 -122.38793 17620 ft 295 kts 131°
2026-05-04 03:53 37.40760 -122.36874 18296 ft 300 kts 131°
2026-05-04 03:53 37.39346 -122.34912 18954 ft 303 kts 131°
2026-05-04 03:54 37.37927 -122.32954 19684 ft 303 kts 132°
2026-05-04 03:54 37.36499 -122.30994 20352 ft 305 kts 132°
2026-05-04 03:54 37.35026 -122.28978 20605 ft 323 kts 132°
2026-05-04 03:54 37.33454 -122.26829 20752 ft 343 kts 132°
2026-05-04 03:55 37.31796 -122.24569 20892 ft 360 kts 132°
2026-05-04 03:55 37.30054 -122.22193 21035 ft 377 kts 132°
2026-05-04 03:55 37.28262 -122.19752 21172 ft 393 kts 133°
2026-05-04 03:55 37.26375 -122.17188 21294 ft 407 kts 133°
2026-05-04 03:56 37.24436 -122.14555 21728 ft 412 kts 133°
2026-05-04 03:56 37.22479 -122.11900 22307 ft 415 kts 133°
2026-05-04 03:56 37.20503 -122.09222 22894 ft 418 kts 133°
2026-05-04 03:56 37.18516 -122.06530 23506 ft 421 kts 133°
2026-05-04 03:57 37.16519 -122.03827 24035 ft 424 kts 133°
2026-05-04 03:57 37.14526 -122.01131 24502 ft 428 kts 133°
2026-05-04 03:57 37.12487 -121.98375 24902 ft 434 kts 134°
2026-05-04 03:57 37.10417 -121.95582 25372 ft 438 kts 134°
2026-05-04 03:58 37.06227 -121.89932 26315 ft 447 kts 134°
2026-05-04 03:58 37.04100 -121.87069 26799 ft 451 kts 135°
2026-05-04 03:58 37.01955 -121.84182 27391 ft 452 kts 135°
2026-05-04 03:59 36.99811 -121.81299 27996 ft 452 kts 135°
2026-05-04 03:59 36.97657 -121.78406 28432 ft 456 kts 136°
2026-05-04 03:59 36.95497 -121.75506 29014 ft 456 kts 137°
2026-05-04 03:59 36.93329 -121.72600 29576 ft 457 kts 137°
2026-05-04 04:00 36.91174 -121.69724 29997 ft 458 kts 138°
2026-05-04 04:00 36.88991 -121.66824 30369 ft 458 kts 138°
2026-05-04 04:00 36.86803 -121.63917 30723 ft 458 kts 139°
2026-05-04 04:00 36.84616 -121.61009 30951 ft 460 kts 140°
2026-05-04 04:01 36.80212 -121.55152 31048 ft 467 kts 140°
2026-05-04 04:01 36.76405 -121.50080 31030 ft 468 kts 140°
2026-05-04 04:02 36.73230 -121.45853 31035 ft 467 kts 140°
2026-05-04 04:02 36.68775 -121.39932 31023 ft 469 kts 141°
2026-05-04 04:03 36.64261 -121.33959 31035 ft 476 kts 142°
2026-05-04 04:03 36.61963 -121.30929 31036 ft 487 kts 141°
2026-05-04 04:03 36.59612 -121.27832 31029 ft 494 kts 141°
2026-05-04 04:04 36.54887 -121.21584 31017 ft 494 kts 141°
2026-05-04 04:04 36.50164 -121.15345 31012 ft 500 kts 143°
2026-05-04 04:05 36.46187 -121.10103 31012 ft 501 kts 143°
2026-05-04 04:05 36.40703 -121.02665 31000 ft 502 kts 141°
2026-05-04 04:06 36.36868 -120.97141 31005 ft 506 kts 140°
2026-05-04 04:06 36.32326 -120.90544 30995 ft 507 kts 140°
2026-05-04 04:07 36.27724 -120.83888 30994 ft 507 kts 140°
2026-05-04 04:07 36.23116 -120.77257 30997 ft 508 kts 141°
2026-05-04 04:08 36.18491 -120.70624 30992 ft 508 kts 141°
2026-05-04 04:08 36.13864 -120.63995 31003 ft 508 kts 141°
2026-05-04 04:09 36.09262 -120.57417 31001 ft 508 kts 141°
2026-05-04 04:09 36.04625 -120.50802 30999 ft 510 kts 142°
2026-05-04 04:10 35.99972 -120.44180 31009 ft 511 kts 142°
2026-05-04 04:10 35.95306 -120.37545 30988 ft 510 kts 142°
2026-05-04 04:11 35.90674 -120.30978 30997 ft 511 kts 142°
2026-05-04 04:11 35.85705 -120.24924 30993 ft 488 kts 156°
2026-05-04 04:12 35.79960 -120.20466 31006 ft 491 kts 162°
2026-05-04 04:12 35.74019 -120.16244 30973 ft 494 kts 161°
2026-05-04 04:13 35.68119 -120.11892 30988 ft 495 kts 160°
2026-05-04 04:13 35.62267 -120.07468 30583 ft 491 kts 160°
2026-05-04 04:14 35.59387 -120.05270 30096 ft 489 kts 160°
2026-05-04 04:14 35.56471 -120.03064 29664 ft 492 kts 159°
2026-05-04 04:14 35.53560 -120.00859 29247 ft 490 kts 159°
2026-05-04 04:14 35.50708 -119.98697 28860 ft 486 kts 159°
2026-05-04 04:15 35.47839 -119.96523 28467 ft 483 kts 159°
2026-05-04 04:15 35.44989 -119.94366 28150 ft 478 kts 159°
2026-05-04 04:15 35.42162 -119.92231 28018 ft 474 kts 159°
2026-05-04 04:15 35.39367 -119.90120 26935 ft 471 kts 158°
2026-05-04 04:16 35.36596 -119.88031 26111 ft 463 kts 158°
2026-05-04 04:16 35.33871 -119.85976 25768 ft 458 kts 158°
2026-05-04 04:16 35.31158 -119.83941 25663 ft 456 kts 158°
2026-05-04 04:16 35.28493 -119.81931 25617 ft 457 kts 157°
2026-05-04 04:17 35.25846 -119.79731 25619 ft 462 kts 154°
2026-05-04 04:17 35.23256 -119.77382 25621 ft 464 kts 152°
2026-05-04 04:17 35.20698 -119.74969 25608 ft 465 kts 152°
2026-05-04 04:17 35.18137 -119.72528 25625 ft 466 kts 152°
2026-05-04 04:18 35.15573 -119.70085 25606 ft 466 kts 152°
2026-05-04 04:18 35.13011 -119.67658 25616 ft 466 kts 152°
2026-05-04 04:18 35.10439 -119.65235 25616 ft 466 kts 152°
2026-05-04 04:18 35.07862 -119.62817 25622 ft 466 kts 153°
2026-05-04 04:19 35.05290 -119.60410 25625 ft 466 kts 153°
2026-05-04 04:19 35.02717 -119.58007 25593 ft 466 kts 153°
2026-05-04 04:19 35.00144 -119.55606 25505 ft 467 kts 153°
2026-05-04 04:19 34.97567 -119.53202 25149 ft 464 kts 152°
2026-05-04 04:20 34.95044 -119.50848 24833 ft 462 kts 153°
2026-05-04 04:20 34.92495 -119.48474 24512 ft 459 kts 153°
2026-05-04 04:20 34.89950 -119.46149 24174 ft 455 kts 154°
2026-05-04 04:20 34.87409 -119.43865 23862 ft 452 kts 154°
2026-05-04 04:21 34.84879 -119.41606 23527 ft 451 kts 154°
2026-05-04 04:21 34.82343 -119.39351 23137 ft 450 kts 153°
2026-05-04 04:21 34.79813 -119.37095 22996 ft 448 kts 153°
2026-05-04 04:21 34.77299 -119.34855 22864 ft 448 kts 153°
2026-05-04 04:22 34.74814 -119.32648 22575 ft 446 kts 153°
2026-05-04 04:22 34.72306 -119.30442 22260 ft 443 kts 153°
2026-05-04 04:22 34.69814 -119.28261 21960 ft 440 kts 153°
2026-05-04 04:22 34.67332 -119.26094 21654 ft 437 kts 153°
2026-05-04 04:23 34.64863 -119.23946 21326 ft 435 kts 152°
2026-05-04 04:23 34.62406 -119.21823 20920 ft 433 kts 152°
2026-05-04 04:23 34.59959 -119.19716 20393 ft 429 kts 152°
2026-05-04 04:23 34.57537 -119.17628 19855 ft 424 kts 151°
2026-05-04 04:24 34.55149 -119.15545 19328 ft 420 kts 150°
2026-05-04 04:24 34.52794 -119.13468 18834 ft 416 kts 149°
2026-05-04 04:24 34.50467 -119.11408 18333 ft 412 kts 149°
2026-05-04 04:24 34.48197 -119.09394 17764 ft 408 kts 149°
2026-05-04 04:25 34.45914 -119.07371 17252 ft 403 kts 149°
2026-05-04 04:25 34.43651 -119.05380 16885 ft 400 kts 149°
2026-05-04 04:25 34.41399 -119.03422 16356 ft 397 kts 149°
2026-05-04 04:25 34.39174 -119.01494 15780 ft 391 kts 149°
2026-05-04 04:26 34.36968 -118.99585 15209 ft 386 kts 149°
2026-05-04 04:26 34.34809 -118.97708 14756 ft 375 kts 148°
2026-05-04 04:26 34.32758 -118.95877 14410 ft 355 kts 147°
2026-05-04 04:26 34.30853 -118.94146 14041 ft 329 kts 147°
2026-05-04 04:27 34.29080 -118.92529 13657 ft 311 kts 147°
2026-05-04 04:27 34.27364 -118.90973 13246 ft 307 kts 147°
2026-05-04 04:27 34.25667 -118.89434 12731 ft 306 kts 147°
2026-05-04 04:27 34.23974 -118.87884 12262 ft 305 kts 147°
2026-05-04 04:28 34.22287 -118.86334 11700 ft 306 kts 146°
2026-05-04 04:28 34.20585 -118.84766 11216 ft 305 kts 146°
2026-05-04 04:28 34.18911 -118.83221 10847 ft 301 kts 146°
2026-05-04 04:28 34.17262 -118.81699 10478 ft 296 kts 146°
2026-05-04 04:29 34.15667 -118.80145 10149 ft 293 kts 142°
2026-05-04 04:29 34.14148 -118.78523 10031 ft 292 kts 141°
2026-05-04 04:29 34.12651 -118.76888 9999 ft 293 kts 141°
2026-05-04 04:29 34.11138 -118.75228 9697 ft 293 kts 141°
2026-05-04 04:30 34.09639 -118.73579 9370 ft 288 kts 141°
2026-05-04 04:30 34.08190 -118.71986 9082 ft 282 kts 141°
2026-05-04 04:30 34.06759 -118.70420 9034 ft 279 kts 141°
2026-05-04 04:30 34.05328 -118.68846 8974 ft 273 kts 141°
2026-05-04 04:31 34.03990 -118.67296 8837 ft 263 kts 134°
2026-05-04 04:31 34.03066 -118.65428 8673 ft 258 kts 110°
2026-05-04 04:31 34.02696 -118.63336 8564 ft 257 kts 100°
2026-05-04 04:31 34.02470 -118.61188 8320 ft 261 kts 98°
2026-05-04 04:32 34.02268 -118.59015 7931 ft 261 kts 98°
2026-05-04 04:32 34.02068 -118.56831 7556 ft 259 kts 98°
2026-05-04 04:32 34.01874 -118.54714 7170 ft 250 kts 97°
2026-05-04 04:32 34.01686 -118.52671 7056 ft 246 kts 97°
2026-05-04 04:33 34.01501 -118.50673 7064 ft 241 kts 98°
2026-05-04 04:33 34.01318 -118.48703 7032 ft 238 kts 97°
2026-05-04 04:33 34.01144 -118.46734 7031 ft 238 kts 94°
2026-05-04 04:33 34.01259 -118.44747 6776 ft 238 kts 82°
2026-05-04 04:34 34.01552 -118.42807 6515 ft 237 kts 79°
2026-05-04 04:34 34.01874 -118.40871 6237 ft 235 kts 79°
2026-05-04 04:34 34.02200 -118.38945 6053 ft 233 kts 79°
2026-05-04 04:34 34.02527 -118.37034 6039 ft 233 kts 78°
2026-05-04 04:35 34.02879 -118.35141 6031 ft 231 kts 78°
2026-05-04 04:35 34.03253 -118.33262 5824 ft 229 kts 77°
2026-05-04 04:35 34.03615 -118.31407 5492 ft 225 kts 78°
2026-05-04 04:35 34.03971 -118.29581 5176 ft 223 kts 78°
2026-05-04 04:36 34.04326 -118.27778 4844 ft 219 kts 77°
2026-05-04 04:36 34.04668 -118.25995 4507 ft 217 kts 78°
2026-05-04 04:36 34.05004 -118.24225 4172 ft 216 kts 78°
2026-05-04 04:36 34.05346 -118.22464 3852 ft 216 kts 78°
2026-05-04 04:37 34.06045 -118.17141 3598 ft 214 kts 106°
2026-05-04 04:37 34.05288 -118.15656 3607 ft 201 kts 141°
2026-05-04 04:38 34.04101 -118.15003 3356 ft 190 kts 174°
2026-05-04 04:38 34.02750 -118.14964 3239 ft 198 kts 184°
2026-05-04 04:38 34.01341 -118.15048 3383 ft 207 kts 186°
2026-05-04 04:38 33.99914 -118.15436 3243 ft 208 kts 206°
2026-05-04 04:39 33.98792 -118.16446 3031 ft 204 kts 230°
2026-05-04 04:39 33.97880 -118.17757 2813 ft 204 kts 231°
2026-05-04 04:39 33.96975 -118.19063 2416 ft 203 kts 232°
2026-05-04 04:39 33.96058 -118.20379 2097 ft 202 kts 231°
2026-05-04 04:40 33.95385 -118.21786 2021 ft 191 kts 257°
2026-05-04 04:40 33.95236 -118.23251 1979 ft 159 kts 265°
2026-05-04 04:40 33.95126 -118.24510 1784 ft 148 kts 262°
2026-05-04 04:40 33.95005 -118.25712 1728 ft 145 kts 263°
2026-05-04 04:41 33.94891 -118.26904 1448 ft 142 kts 262°
2026-05-04 04:41 33.94761 -118.28092 1468 ft 143 kts 262°
2026-05-04 04:41 33.94636 -118.29232 1526 ft 136 kts 262°
2026-05-04 04:41 33.94515 -118.30364 1492 ft 136 kts 265°
2026-05-04 04:42 33.94442 -118.31510 1421 ft 137 kts 263°
2026-05-04 04:42 33.94327 -118.32626 1177 ft 134 kts 262°
2026-05-04 04:42 33.94200 -118.33744 858 ft 136 kts 263°
2026-05-04 04:42 33.94072 -118.34905 684 ft 146 kts 265°
2026-05-04 04:43 33.93958 -118.36127 538 ft 146 kts 265°
2026-05-04 04:43 33.93830 -118.37321 361 ft 142 kts 262°
2026-05-04 04:43 33.93720 -118.38468 158 ft 135 kts 261°
2026-05-04 04:43 33.93618 -118.39441 133 ft 94 kts 263°
2026-05-04 04:44 33.93554 -118.40022 133 ft 38 kts 256°
2026-05-04 04:44 33.93490 -118.40183 128 ft 11 kts 220°
2026-05-04 04:44 33.93446 -118.40180 124 ft 7 kts 141°
2026-05-04 04:44 33.93429 -118.40125 129 ft 0 kts 92°
2026-05-04 04:47 33.93438 -118.39996 126 ft 12 kts 83°
2026-05-04 04:47 33.93448 -118.39901 133 ft 11 kts 83°
2026-05-04 04:47 33.93458 -118.39804 132 ft 11 kts 83°
2026-05-04 04:47 33.93466 -118.39716 131 ft 10 kts 83°
2026-05-04 04:48 33.93477 -118.39614 126 ft 17 kts 83°
2026-05-04 04:49 33.93536 -118.39033 125 ft 17 kts 83°
2026-05-04 04:49 33.93552 -118.38890 128 ft 16 kts 83°
2026-05-04 04:49 33.93528 -118.38811 132 ft 10 kts 137°
2026-05-04 04:49 33.93458 -118.38782 127 ft 11 kts 170°
2026-05-04 04:50 33.93428 -118.38776 128 ft 3 kts 172°
2026-05-04 04:50 33.93412 -118.38773 129 ft 2 kts 172°
2026-05-04 04:50 33.93410 -118.38773 129 ft 0 kts 172°
2026-05-04 04:50 33.93409 -118.38773 129 ft 0 kts 173°